Flag for United Kingdom Weather past 2 weeks in Swanage, England, United Kingdom

Now
64 °F

Partly sunny.


Feels Like: 64 °F
Forecast: 51 / 64 °F
Wind: 9 mph from Northeast

Location: Bournemouth Airport

Current Time: Sep 20, 2014 at 7:40:53 PM

Latest Report: Sep 20, 2014 at 6:50 PM


Visibility: N/A

Pressure: 30.04 "Hg

Humidity: 83%

Dew point: 59 °F

Location of SwanageLocation

Historic Weather in Swanage — Graph

°F

Swanage temperature yesterday

Maximum temperature yesterday: 72 °F (at 2:50 PM)
Minimum temperature yesterday: 59 °F (at 11:50 PM)
Average temperature yesterday: 66 °F

Past Weeks' High & Low Weather Summary

 TemperatureHumidityPressure
High77 °F (Sep 18, 3:50 PM)100% (Sep 6, 4:50 AM)30.30 "Hg (Sep 6, 4:50 AM)
Low45 °F (Sep 9, 4:50 AM)50% (Sep 15, 4:20 PM)29.74 "Hg (Sep 18, 4:50 AM)
Average62 °F81%30.02 "Hg
* Reported Sep 5 1:20 PM — Sep 20 1:50 PM, Swanage, Weather by CustomWeather, © 2014

Note: Actual official high and low records may vary slightly from our data, if they occured in-between our weather recording intervals... More about our weather records

Advertising

Swanage weather history for previous 24 hours

 ConditionsComfort  
Time TempWeatherWind HumidityBarometerVisibility
1:50 PM
Sep 20
66 °FPartly sunny.5 mph88%30.01 "Hg4 mi
1:20 PM66 °FPartly sunny.3 mph88%30.01 "Hg3 mi
12:50 PM66 °FLow clouds.3 mph88%30.01 "Hg3 mi
12:20 PM64 °FFog.3 mph94%30.01 "Hg3 mi
11:50 AM64 °FFog.6 mph94%30.01 "Hg3 mi
11:20 AM64 °FFog.6 mph94%29.98 "Hg2 mi
10:50 AM64 °FFog.6 mph94%29.98 "Hg2 mi
10:20 AM64 °FFog.6 mph94%29.98 "Hg2 mi
9:50 AM64 °FFog.5 mph94%29.92 "Hg1 mi
9:20 AM64 °FFog.5 mph94%29.98 "Hg1 mi
8:50 AM63 °FFog.3 mph100%29.95 "Hg1 mi
8:20 AM63 °FFog.5 mph100%29.95 "Hg1 mi
7:50 AM63 °FFog.8 mph100%29.95 "Hg1 mi
7:20 AM63 °FFog.7 mph94%29.95 "Hg1 mi
6:50 AM63 °FFog.7 mph94%29.92 "Hg1 mi
6:20 AM63 °FFog.7 mph94%29.92 "Hg1 mi
5:50 AM61 °FFog.3 mph100%29.92 "Hg0 mi
5:20 AM59 °FFog.1 mph100%29.92 "Hg0 mi
4:50 AM59 °FFog.5 mph100%29.92 "Hg1 mi
4:20 AM59 °FFog.1 mph94%29.92 "Hg1 mi
3:50 AM57 °FFog.1 mph100%29.92 "Hg1 mi
3:20 AM55 °FFog.No wind100%29.92 "Hg0 mi
2:20 AM57 °FFog.2 mph94%29.92 "Hg0 mi
1:50 AM55 °FFog.1 mph100%29.92 "Hg0 mi
1:20 AM57 °FFog.2 mph100%29.92 "Hg0 mi
12:50 AM59 °FFog.6 mph94%29.92 "Hg0 mi
11:50 PM
Sep 19
59 °FFog.5 mph100%29.92 "Hg1 mi
11:20 PM61 °FFog.5 mph100%29.92 "Hg1 mi
10:50 PM63 °FFog.6 mph94%29.92 "Hg2 mi
10:20 PM63 °FFog.6 mph100%29.92 "Hg2 mi
9:50 PM64 °FFog.3 mph94%29.92 "Hg2 mi
9:20 PM64 °FFog.1 mph94%29.89 "Hg2 mi
8:50 PM64 °FFog.1 mph94%29.89 "Hg2 mi
8:20 PM64 °FPassing clouds.No wind88%29.86 "Hg3 mi
7:50 PM70 °FScattered clouds.No wind78%29.86 "Hg5 mi
7:20 PM70 °FScattered clouds.No wind78%29.86 "Hg5 mi
Weather by CustomWeather, © 2014

See weather overviewHow to use our weather pages